Date String (YYYY-MM-DD hh:mm:ss) UTC,Instrument flags,Ambient pressure (hPa),Sample flow (lpm),Bypass flow (lpm),Sample temperature (°C),Ambient temperature (°C),ASC tube jacket temperature (°C),LED temperature (°C),Box temperature (°C),Sample RH (%),Span deviation,Mass concentration (μg/m³),Mass concentration (μg/m³),Mass concentration (μg/m³)
DateTimeUTC,F1_M11,P_M11,Q1_M11,Q2_M11,T1_M11,T2_M11,T3_M11,T4_M11,T5_M11,U1_M11,ZSPAN_M11,X0_M11,X2_M11,X1_M11
2022-09-09 18:00:00,,0827.2,5.00,0.00,31.1,29.8,00.0,39.9,32.9,22.6,0000.8,0018.18,0013.57,0012.59
2022-09-09 18:01:00,,0827.2,5.00,0.00,31.1,29.8,00.0,39.9,32.9,22.5,0001.3,0018.65,0013.55,0012.60
2022-09-09 18:02:00,,0827.2,4.99,0.00,31.1,29.8,00.0,40.0,32.9,22.4,0002.0,0019.06,0013.56,0012.61
2022-09-09 18:03:00,,0827.3,5.00,0.00,31.1,29.8,00.0,39.9,32.9,22.5,0001.8,0019.40,0013.57,0012.62
2022-09-09 18:04:00,,0827.3,5.00,0.00,31.1,29.8,00.0,39.9,32.9,22.4,0002.1,0019.57,0013.61,0012.65
2022-09-09 18:05:00,,0827.2,5.00,0.00,31.1,29.8,00.0,39.9,32.9,22.3,0002.0,0020.01,0013.62,0012.64
2022-09-09 18:06:00,,0827.1,5.01,0.00,31.1,29.8,00.0,40.0,32.9,22.3,0002.4,0020.84,0013.61,0012.66
2022-09-09 18:07:00,,0827.2,5.01,0.00,31.1,29.8,00.0,40.0,32.9,22.3,0002.9,0021.63,0013.62,0012.68
2022-09-09 18:08:00,,0827.2,4.99,0.00,31.1,29.9,00.0,40.0,32.9,22.1,0002.4,0021.97,0013.64,0012.66
2022-09-09 18:09:00,,0827.2,5.01,0.00,31.1,29.8,00.0,40.0,32.9,21.8,0002.2,0022.28,0013.66,0012.63
2022-09-09 18:10:00,,0827.1,5.01,0.00,31.1,29.8,00.0,40.0,32.9,21.7,0002.6,0022.12,0013.69,0012.61
2022-09-09 18:11:00,,0827.2,4.99,0.00,31.1,29.8,00.0,40.0,32.9,21.8,0002.8,0022.14,0013.75,0012.60
2022-09-09 18:12:00,,0827.2,5.01,0.00,31.1,29.8,00.0,40.0,32.9,21.8,0002.4,0022.01,0013.78,0012.60
2022-09-09 18:13:00,,0827.1,5.01,0.00,31.1,29.8,00.0,40.0,32.9,21.9,0001.9,0021.51,0013.76,0012.59
2022-09-09 18:14:00,,0827.3,4.99,0.00,31.1,29.8,00.0,40.0,32.9,21.9,0002.0,0021.29,0013.80,0012.59
2022-09-09 18:15:00,,0827.4,5.00,0.00,31.1,29.8,00.0,40.0,32.9,22.0,0002.3,0021.92,0013.84,0012.57
2022-09-09 18:16:00,,0827.3,5.00,0.00,31.1,29.8,00.0,40.0,32.9,22.1,0002.2,0021.66,0013.83,0012.55
2022-09-09 18:17:00,,0827.2,4.99,0.00,31.1,29.9,00.0,40.0,32.9,22.3,0002.1,0021.24,0013.81,0012.53
2022-09-09 18:18:00,,0827.1,5.00,0.00,31.1,29.9,00.0,40.0,32.9,22.3,0002.2,0021.48,0013.78,0012.53
2022-09-09 18:19:00,,0827.0,5.01,0.00,31.2,29.9,00.0,40.0,32.9,22.4,0002.4,0021.13,0013.75,0012.55
2022-09-09 18:20:00,,0827.0,4.98,0.00,31.1,29.8,00.0,40.0,32.9,22.4,0002.7,0020.90,0013.70,0012.59
2022-09-09 18:21:00,,0827.3,5.01,0.00,31.2,29.8,00.0,40.0,32.9,22.4,0003.0,0020.75,0013.69,0012.65
2022-09-09 18:22:00,,0827.2,5.01,0.00,31.2,29.9,00.0,40.0,32.9,22.4,0003.1,0020.68,0013.66,0012.68
2022-09-09 18:23:00,,0827.1,4.98,0.00,31.2,29.9,00.0,40.0,32.9,22.4,0003.2,0021.11,0013.67,0012.71
2022-09-09 18:24:00,,0827.2,5.01,0.00,31.2,29.9,00.0,40.0,33.0,22.4,0003.1,0021.34,0013.72,0012.76
2022-09-09 18:25:00,,0827.2,5.01,0.00,31.2,29.9,00.0,40.0,32.9,22.4,0003.1,0021.29,0013.71,0012.79
2022-09-09 18:26:00,,0827.2,4.98,0.00,31.2,29.8,00.0,40.0,32.9,22.4,0002.9,0020.67,0013.72,0012.85
2022-09-09 18:27:00,,0827.1,5.01,0.00,31.2,29.8,00.0,40.0,32.9,22.4,0002.8,0020.42,0013.76,0012.93
2022-09-09 18:28:00,,0827.0,5.01,0.00,31.2,29.9,00.0,40.0,33.0,22.3,0002.8,0020.18,0013.86,0013.04
2022-09-09 18:29:00,,0826.9,4.99,0.00,31.2,29.9,00.0,40.0,32.9,22.4,0002.2,0019.47,0013.97,0013.16
2022-09-09 18:30:00,,0826.9,5.00,0.00,31.2,29.9,00.0,40.0,33.0,22.6,0001.7,0019.56,0014.11,0013.25
2022-09-09 18:31:00,,0826.9,5.01,0.00,31.2,29.9,00.0,40.0,33.0,22.6,0001.6,0020.33,0014.21,0013.34
2022-09-09 18:32:00,,0827.3,4.99,0.00,31.2,29.8,00.0,40.0,33.0,22.6,0001.4,0021.15,0014.28,0013.40
2022-09-09 18:33:00,,0827.1,5.01,0.00,31.2,29.9,00.0,40.0,33.0,22.6,0001.5,0021.30,0014.40,0013.51
2022-09-09 18:34:00,,0827.1,5.01,0.00,31.2,29.9,00.0,40.0,33.0,22.7,0001.7,0020.71,0014.48,0013.61
2022-09-09 18:35:00,,0827.0,4.99,0.00,31.2,29.9,00.0,40.0,33.0,22.6,0001.9,0020.68,0014.55,0013.67
2022-09-09 18:36:00,,0827.0,5.00,0.00,31.2,29.9,00.0,40.0,33.0,22.5,0001.6,0020.88,0014.58,0013.70
2022-09-09 18:37:00,,0826.9,5.01,0.00,31.2,29.9,00.0,40.0,33.0,22.3,0001.7,0021.93,0014.58,0013.72
2022-09-09 18:38:00,,0827.0,4.98,0.00,31.2,29.9,00.0,40.0,33.0,22.4,0001.9,0022.19,0014.62,0013.75
2022-09-09 18:39:00,,0827.0,5.00,0.00,31.2,29.9,00.0,40.0,33.0,22.5,0002.2,0022.27,0014.67,0013.77
2022-09-09 18:40:00,,0827.0,5.01,0.00,31.2,29.9,00.0,40.0,33.0,22.5,0002.6,0021.98,0014.61,0013.72
2022-09-09 18:41:00,,0827.1,5.01,0.00,31.2,29.9,00.0,40.1,33.0,22.6,0003.3,0022.67,0014.56,0013.69
2022-09-09 18:42:00,,0827.1,4.99,0.00,31.2,29.9,00.0,40.0,33.0,22.4,0003.4,0022.12,0014.50,0013.63
2022-09-09 18:43:00,,0826.9,5.01,0.00,31.2,29.9,00.0,40.1,33.0,22.3,0003.3,0020.96,0014.46,0013.56
2022-09-09 18:44:00,,0826.9,5.01,0.00,31.2,29.9,00.0,40.1,33.0,22.3,0003.2,0020.71,0014.35,0013.44
2022-09-09 18:45:00,,0826.9,4.99,0.00,31.2,29.9,00.0,40.1,33.0,22.2,0003.0,0020.68,0014.14,0013.27
2022-09-09 18:46:00,,0826.9,5.00,0.00,31.2,29.9,00.0,40.1,33.0,22.3,0002.9,0020.76,0013.98,0013.10
2022-09-09 18:47:00,,0827.0,5.00,0.00,31.2,29.9,00.0,40.1,33.0,22.3,0002.7,0020.67,0013.85,0012.98
2022-09-09 18:48:00,,0826.9,5.00,0.00,31.2,29.8,00.0,40.1,33.0,22.2,0002.8,0019.53,0013.76,0012.88
2022-09-09 18:49:00,,0827.0,4.99,0.00,31.2,29.9,00.0,40.1,33.0,22.2,0002.7,0019.10,0013.62,0012.74
2022-09-09 18:50:00,,0827.1,5.00,0.00,31.2,29.9,00.0,40.1,33.0,22.2,0002.5,0019.22,0013.43,0012.59
2022-09-09 18:51:00,,0827.0,4.99,0.00,31.2,29.9,00.0,40.1,33.0,22.2,0002.0,0019.60,0013.28,0012.44
2022-09-09 18:52:00,,0827.0,5.00,0.00,31.2,29.9,00.0,40.1,33.0,22.2,0001.4,0019.22,0013.12,0012.33
2022-09-09 18:53:00,,0827.0,5.01,0.00,31.2,29.8,00.0,40.0,33.0,22.2,0001.4,0019.05,0013.02,0012.27
2022-09-09 18:54:00,,0827.0,5.01,0.00,31.2,29.8,00.0,40.0,33.0,22.3,0001.5,0019.05,0012.93,0012.20
2022-09-09 18:55:00,,0827.0,4.98,0.00,31.2,29.8,00.0,40.1,33.0,22.3,0001.3,0019.18,0012.91,0012.19
2022-09-09 18:56:00,,0827.0,5.00,0.00,31.2,29.8,00.0,40.0,33.0,22.2,0001.4,0018.85,0012.95,0012.22
2022-09-09 18:57:00,,0826.9,5.00,0.00,31.2,29.8,00.0,40.1,33.0,22.3,0001.5,0018.81,0012.97,0012.24
2022-09-09 18:58:00,,0826.9,5.00,0.00,31.2,29.9,00.0,40.1,33.0,22.2,0001.8,0019.58,0013.03,0012.27
2022-09-09 18:59:00,,0826.9,5.01,0.00,31.2,29.9,00.0,40.1,33.0,22.2,0001.9,0019.99,0013.04,0012.29
